When you browse on this site, cookies collect data to enhance your experience and personalize the content and advertising you see.
Visit our Privacy Policy to learn more. By continuing to use the site, you agree to this use of cookies and data.
  • In Romania
  • List of Countries
  • For 7 days
  • Water Temperature
  • Weather Map
  • Weather Widgets
  • user-avatar
    Login

    Hourly Weather Edinburgh

    Today, 31 May, Sunday

    Time Temperature Precipitation Wind Pressure Humidity
    00:00 +9°C° 0 mm 3 mps 767 mmHg 85%
    01:00 +9°C° 0 mm 3 mps 767 mmHg 86%
    02:00 +9°C° 0 mm 2 mps 767 mmHg 87%
    03:00 +8°C° 0 mm 2 mps 767 mmHg 89%
    04:00 +9°C° 0 mm 2 mps 767 mmHg 87%
    05:00 +10°C° 0 mm 2 mps 767 mmHg 85%
    06:00 +10°C° 0 mm 2 mps 767 mmHg 83%
    07:00 +12°C° 0 mm 3 mps 767 mmHg 76%
    08:00 +14°C° 0 mm 3 mps 767 mmHg 70%
    09:00 +17°C° 0 mm 3 mps 767 mmHg 64%
    10:00 +18°C° 0 mm 3 mps 768 mmHg 59%
    11:00 +19°C° 0 mm 3 mps 768 mmHg 55%
    12:00 +20°C° 0 mm 3 mps 768 mmHg 50%
    13:00 +21°C° 0 mm 3 mps 768 mmHg 50%
    14:00 +21°C° 0 mm 3 mps 767 mmHg 50%
    15:00 +21°C° 0 mm 3 mps 767 mmHg 50%
    16:00 +21°C° 0 mm 3 mps 767 mmHg 54%
    17:00 +20°C° 0 mm 3 mps 767 mmHg 59%
    18:00 +20°C° 0 mm 2 mps 767 mmHg 63%
    19:00 +18°C° 0 mm 2 mps 767 mmHg 70%
    20:00 +16°C° 0 mm 2 mps 768 mmHg 77%
    21:00 +14°C° 0 mm 1 mps 768 mmHg 85%
    22:00 +13°C° 0 mm 1 mps 768 mmHg 86%
    23:00 +12°C° 0 mm 1 mps 768 mmHg 88%

    Tomorrow, 1 June, Monday

    Time Temperature Precipitation Wind Pressure Humidity
    00:00 +12°C° 0 mm 1 mps 768 mmHg 90%
    01:00 +11°C° 0 mm 1 mps 768 mmHg 91%
    02:00 +11°C° 0 mm 1 mps 768 mmHg 91%
    03:00 +11°C° 0 mm 1 mps 768 mmHg 92%
    04:00 +11°C° 0 mm 1 mps 768 mmHg 89%
    05:00 +12°C° 0 mm 1 mps 768 mmHg 86%
    06:00 +13°C° 0 mm 1 mps 768 mmHg 83%
    07:00 +15°C° 0 mm 1 mps 768 mmHg 77%
    08:00 +18°C° 0 mm 1 mps 768 mmHg 70%
    09:00 +20°C° 0 mm 1 mps 768 mmHg 63%
    10:00 +21°C° 0 mm 1 mps 768 mmHg 59%
    11:00 +22°C° 0 mm 1 mps 768 mmHg 55%
    12:00 +23°C° 0 mm 2 mps 768 mmHg 51%
    13:00 +23°C° 0 mm 2 mps 768 mmHg 51%
    14:00 +23°C° 0 mm 2 mps 768 mmHg 52%
    15:00 +23°C° 0 mm 2 mps 767 mmHg 53%
    16:00 +21°C° 0 mm 2 mps 767 mmHg 58%
    17:00 +21°C° 0 mm 2 mps 767 mmHg 64%
    18:00 +20°C° 0 mm 2 mps 767 mmHg 69%
    19:00 +19°C° 0 mm 1 mps 767 mmHg 73%
    20:00 +16°C° 0 mm 1 mps 767 mmHg 78%
    21:00 +15°C° 0 mm 1 mps 767 mmHg 83%
    22:00 +14°C° 0 mm 1 mps 767 mmHg 83%
    23:00 +13°C° 0 mm 1 mps 766 mmHg 84%

    Day after tomorrow, 2 June, Tuesday

    Time Temperature Precipitation Wind Pressure Humidity
    00:00 +13°C° 0 mm 1 mps 766 mmHg 85%
    01:00 +11°C° 0 mm 0 mps 766 mmHg 85%
    02:00 +11°C° 0 mm 0 mps 766 mmHg 85%
    03:00 +11°C° 0 mm 0 mps 765 mmHg 85%
    04:00 +12°C° 0 mm 0 mps 765 mmHg 83%
    05:00 +12°C° 0 mm 0 mps 765 mmHg 82%
    06:00 +13°C° 0 mm 0 mps 764 mmHg 81%
    07:00 +16°C° 0 mm 1 mps 764 mmHg 76%
    08:00 +18°C° 0 mm 1 mps 764 mmHg 72%
    09:00 +18°C° 0 mm 2 mps 763 mmHg 68%
    10:00 +19°C° 0.2 mm 2 mps 763 mmHg 67%
    11:00 +20°C° 0.2 mm 3 mps 762 mmHg 66%
    12:00 +20°C° 0.2 mm 3 mps 762 mmHg 64%
    13:00 +20°C° 0.3 mm 4 mps 761 mmHg 67%
    14:00 +20°C° 0.3 mm 4 mps 761 mmHg 69%
    15:00 +20°C° 0.3 mm 4 mps 760 mmHg 71%
    16:00 +19°C° 0.5 mm 4 mps 760 mmHg 75%
    17:00 +18°C° 0.5 mm 4 mps 760 mmHg 79%
    18:00 +17°C° 0.5 mm 4 mps 759 mmHg 83%
    19:00 +16°C° 0.4 mm 3 mps 759 mmHg 86%
    20:00 +15°C° 0.4 mm 2 mps 759 mmHg 90%
    21:00 +14°C° 0.4 mm 2 mps 759 mmHg 93%
    22:00 +13°C° 1 mm 2 mps 759 mmHg 93%
    23:00 +12°C° 1 mm 3 mps 759 mmHg 94%

    3 June, Wednesday

    Time Temperature Precipitation Wind Pressure Humidity
    00:00 +12°C° 1 mm 4 mps 759 mmHg 94%
    01:00 +12°C° 0.6 mm 4 mps 759 mmHg 93%
    02:00 +11°C° 0.6 mm 4 mps 759 mmHg 93%
    03:00 +10°C° 0.6 mm 5 mps 759 mmHg 92%
    04:00 +10°C° 0.1 mm 5 mps 760 mmHg 91%
    05:00 +9°C° 0.1 mm 5 mps 760 mmHg 90%
    06:00 +9°C° 0.1 mm 5 mps 760 mmHg 90%
    07:00 +9°C° 0 mm 5 mps 761 mmHg 87%
    08:00 +10°C° 0 mm 5 mps 761 mmHg 84%
    09:00 +10°C° 0 mm 5 mps 761 mmHg 81%
    10:00 +11°C° 0 mm 6 mps 761 mmHg 78%
    11:00 +11°C° 0 mm 6 mps 762 mmHg 75%
    12:00 +13°C° 0 mm 6 mps 762 mmHg 72%
    13:00 +13°C° 0 mm 5 mps 762 mmHg 69%
    14:00 +13°C° 0 mm 5 mps 762 mmHg 66%
    15:00 +13°C° 0 mm 5 mps 762 mmHg 63%
    16:00 +13°C° 0 mm 5 mps 762 mmHg 64%
    17:00 +13°C° 0 mm 5 mps 762 mmHg 64%
    18:00 +13°C° 0 mm 4 mps 762 mmHg 65%
    19:00 +11°C° 0 mm 4 mps 762 mmHg 70%
    20:00 +9°C° 0 mm 3 mps 762 mmHg 76%
    21:00 +8°C° 0 mm 2 mps 763 mmHg 82%
    22:00 +7°C° 0 mm 2 mps 762 mmHg 85%
    23:00 +6°C° 0 mm 2 mps 762 mmHg 87%

    4 June, Thursday

    Time Temperature Precipitation Wind Pressure Humidity
    00:00 +6°C° 0 mm 1 mps 762 mmHg 90%
    01:00 +6°C° 0 mm 1 mps 762 mmHg 90%
    02:00 +5°C° 0 mm 1 mps 762 mmHg 91%
    03:00 +5°C° 0 mm 1 mps 761 mmHg 92%
    04:00 +6°C° 0 mm 1 mps 761 mmHg 88%
    05:00 +6°C° 0 mm 0 mps 760 mmHg 85%
    06:00 +7°C° 0 mm 0 mps 760 mmHg 81%
    07:00 +10°C° 0 mm 1 mps 760 mmHg 76%
    08:00 +11°C° 0 mm 1 mps 759 mmHg 70%
    09:00 +13°C° 0 mm 2 mps 759 mmHg 64%
    10:00 +13°C° 0 mm 3 mps 759 mmHg 63%
    11:00 +14°C° 0 mm 3 mps 758 mmHg 61%
    12:00 +15°C° 0 mm 4 mps 758 mmHg 59%
    13:00 +15°C° 0 mm 4 mps 757 mmHg 58%
    14:00 +16°C° 0 mm 5 mps 757 mmHg 57%
    15:00 +16°C° 0 mm 5 mps 756 mmHg 55%
    16:00 +16°C° 0 mm 5 mps 756 mmHg 61%
    17:00 +15°C° 0 mm 5 mps 756 mmHg 66%
    18:00 +15°C° 0 mm 5 mps 755 mmHg 72%
    19:00 +13°C° 0 mm 4 mps 755 mmHg 77%
    20:00 +12°C° 0 mm 4 mps 755 mmHg 83%
    21:00 +11°C° 0 mm 3 mps 755 mmHg 88%
    22:00 +11°C° 0 mm 3 mps 755 mmHg 89%
    23:00 +11°C° 0 mm 3 mps 755 mmHg 91%

    5 June, Friday

    Time Temperature Precipitation Wind Pressure Humidity
    00:00 +11°C° 0 mm 3 mps 755 mmHg 92%
    01:00 +10°C° 0 mm 3 mps 755 mmHg 93%
    02:00 +9°C° 0 mm 3 mps 755 mmHg 94%
    03:00 +9°C° 0 mm 2 mps 755 mmHg 95%
    04:00 +9°C° 0 mm 2 mps 755 mmHg 92%
    05:00 +10°C° 0 mm 2 mps 755 mmHg 90%
    06:00 +11°C° 0 mm 1 mps 755 mmHg 87%
    07:00 +12°C° 0 mm 2 mps 755 mmHg 80%
    08:00 +13°C° 0 mm 2 mps 756 mmHg 73%
    09:00 +13°C° 0 mm 3 mps 756 mmHg 65%
    10:00 +13°C° 0 mm 3 mps 756 mmHg 62%
    11:00 +14°C° 0 mm 3 mps 756 mmHg 58%
    12:00 +16°C° 0 mm 3 mps 756 mmHg 54%
    13:00 +16°C° 0 mm 3 mps 756 mmHg 53%
    14:00 +16°C° 0 mm 3 mps 757 mmHg 53%
    15:00 +16°C° 0 mm 3 mps 757 mmHg 52%
    16:00 +16°C° 0 mm 3 mps 757 mmHg 55%
    17:00 +14°C° 0 mm 3 mps 757 mmHg 58%
    18:00 +14°C° 0 mm 3 mps 757 mmHg 61%
    19:00 +12°C° 0 mm 3 mps 758 mmHg 65%
    20:00 +10°C° 0 mm 2 mps 758 mmHg 69%
    21:00 +9°C° 0 mm 2 mps 758 mmHg 74%
    22:00 +8°C° 0 mm 2 mps 758 mmHg 76%
    23:00 +7°C° 0 mm 2 mps 758 mmHg 78%
    Show more